TimeEDT,TemperatureF,Dew PointF,Humidity,Sea Level PressureIn,VisibilityMPH,Wind Direction,Wind SpeedMPH,Gust SpeedMPH,PrecipitationIn,Events,Conditions,WindDirDegrees,DateUTC
12:15 AM,55.4,53.6,94,30.08,10.0,West,4.6,-,N/A,,Clear,280,2013-09-20 04:15:00
12:35 AM,53.6,53.6,100,30.08,10.0,West,3.5,-,N/A,,Clear,270,2013-09-20 04:35:00
12:55 AM,53.6,53.6,100,30.08,9.0,Calm,Calm,-,N/A,,Clear,0,2013-09-20 04:55:00
1:15 AM,53.6,53.6,100,30.08,6.0,Calm,Calm,-,N/A,,Clear,0,2013-09-20 05:15:00
1:35 AM,51.8,51.8,100,30.08,1.5,Calm,Calm,-,N/A,,Clear,0,2013-09-20 05:35:00
1:55 AM,53.6,51.8,94,30.07,10.0,West,3.5,-,N/A,,Clear,260,2013-09-20 05:55:00
2:15 AM,51.8,51.8,100,30.07,10.0,West,4.6,-,N/A,,Clear,270,2013-09-20 06:15:00
2:35 AM,53.6,51.8,94,30.07,8.0,West,3.5,-,N/A,,Clear,280,2013-09-20 06:35:00
2:55 AM,50.0,50.0,100,30.07,0.2,Calm,Calm,-,N/A,Fog,Fog,0,2013-09-20 06:55:00
3:15 AM,50.0,50.0,100,30.07,10.0,Calm,Calm,-,N/A,,Clear,0,2013-09-20 07:15:00
3:35 AM,51.8,51.8,100,30.07,8.0,West,3.5,-,N/A,,Clear,280,2013-09-20 07:35:00
3:55 AM,51.8,51.8,100,30.07,4.0,West,3.5,-,N/A,,Clear,260,2013-09-20 07:55:00
4:15 AM,48.2,48.2,100,30.07,1.5,Calm,Calm,-,N/A,,Clear,0,2013-09-20 08:15:00
4:35 AM,53.6,51.8,94,30.07,8.0,West,3.5,-,N/A,,Clear,280,2013-09-20 08:35:00
4:55 AM,51.8,51.8,100,30.07,8.0,WSW,4.6,-,N/A,,Clear,250,2013-09-20 08:55:00
5:15 AM,53.6,51.8,94,30.07,2.5,WNW,4.6,-,N/A,,Clear,290,2013-09-20 09:15:00
5:35 AM,53.6,53.6,100,30.07,4.0,West,3.5,-,N/A,,Clear,260,2013-09-20 09:35:00
5:55 AM,53.6,53.6,100,30.07,1.5,WSW,3.5,-,N/A,,Clear,250,2013-09-20 09:55:00
6:15 AM,53.6,53.6,100,30.07,1.0,West,3.5,-,N/A,,Clear,280,2013-09-20 10:15:00
6:35 AM,51.8,51.8,100,30.07,0.2,WNW,3.5,-,N/A,Fog,Fog,290,2013-09-20 10:35:00
6:55 AM,50.0,50.0,100,30.07,0.2,Calm,Calm,-,N/A,Fog,Fog,0,2013-09-20 10:55:00
7:15 AM,51.8,51.8,100,30.08,0.2,Calm,Calm,-,N/A,Fog,Fog,0,2013-09-20 11:15:00
7:35 AM,55.4,55.4,100,30.08,9.0,Calm,Calm,-,N/A,,Clear,0,2013-09-20 11:35:00
7:55 AM,59.0,59.0,100,30.08,10.0,Calm,Calm,-,N/A,,Clear,0,2013-09-20 11:55:00
8:15 AM,62.6,62.6,100,30.09,10.0,Calm,Calm,-,N/A,,Clear,0,2013-09-20 12:15:00
8:35 AM,62.6,60.8,94,30.09,10.0,West,5.8,-,N/A,,Clear,270,2013-09-20 12:35:00
8:55 AM,66.2,59.0,78,30.09,10.0,West,9.2,-,N/A,,Clear,260,2013-09-20 12:55:00
9:15 AM,68.0,59.0,73,30.09,10.0,WSW,6.9,-,N/A,,Clear,250,2013-09-20 13:15:00
9:35 AM,68.0,57.2,68,30.09,10.0,WSW,8.1,-,N/A,,Clear,240,2013-09-20 13:35:00
9:55 AM,69.8,57.2,64,30.09,10.0,WSW,6.9,-,N/A,,Clear,250,2013-09-20 13:55:00
10:15 AM,71.6,57.2,60,30.10,10.0,West,3.5,-,N/A,,Clear,280,2013-09-20 14:15:00
10:35 AM,71.6,55.4,57,30.10,10.0,West,6.9,-,N/A,,Clear,260,2013-09-20 14:35:00
10:55 AM,71.6,55.4,57,30.10,10.0,WSW,6.9,-,N/A,,Clear,250,2013-09-20 14:55:00
11:15 AM,73.4,55.4,53,30.10,10.0,West,9.2,-,N/A,,Clear,270,2013-09-20 15:15:00
11:35 AM,73.4,53.6,50,30.10,10.0,WSW,9.2,-,N/A,,Clear,250,2013-09-20 15:35:00
11:55 AM,75.2,51.8,44,30.10,10.0,West,8.1,-,N/A,,Clear,260,2013-09-20 15:55:00
12:15 PM,75.2,50.0,41,30.09,10.0,WSW,10.4,-,N/A,,Clear,250,2013-09-20 16:15:00
12:35 PM,75.2,51.8,44,30.08,10.0,West,6.9,-,N/A,,Clear,260,2013-09-20 16:35:00
12:55 PM,75.2,51.8,44,30.08,10.0,WSW,8.1,-,N/A,,Clear,250,2013-09-20 16:55:00
1:15 PM,75.2,53.6,47,30.07,10.0,WSW,3.5,-,N/A,,Clear,240,2013-09-20 17:15:00
1:35 PM,75.2,53.6,47,30.06,10.0,West,6.9,-,N/A,,Clear,270,2013-09-20 17:35:00
1:55 PM,75.2,53.6,47,30.06,10.0,WSW,8.1,-,N/A,,Clear,240,2013-09-20 17:55:00
2:15 PM,75.2,53.6,47,30.06,10.0,SW,8.1,-,N/A,,Clear,230,2013-09-20 18:15:00
2:35 PM,75.2,53.6,47,30.06,10.0,WSW,8.1,-,N/A,,Clear,250,2013-09-20 18:35:00
2:55 PM,75.2,53.6,47,30.05,10.0,WSW,5.8,-,N/A,,Clear,240,2013-09-20 18:55:00
3:15 PM,75.2,50.0,41,30.04,10.0,SW,6.9,-,N/A,,Clear,230,2013-09-20 19:15:00
3:35 PM,75.2,50.0,41,30.04,10.0,WSW,11.5,-,N/A,,Clear,240,2013-09-20 19:35:00
3:55 PM,75.2,53.6,47,30.03,10.0,SW,8.1,-,N/A,,Clear,230,2013-09-20 19:55:00
4:15 PM,73.4,53.6,50,30.03,10.0,SW,8.1,-,N/A,,Clear,220,2013-09-20 20:15:00
4:35 PM,73.4,51.8,47,30.03,10.0,SW,10.4,-,N/A,,Clear,230,2013-09-20 20:35:00
4:55 PM,71.6,48.2,43,30.03,10.0,SW,10.4,-,N/A,,Clear,230,2013-09-20 20:55:00
5:15 PM,71.6,50.0,46,30.04,10.0,SW,9.2,-,N/A,,Clear,220,2013-09-20 21:15:00
5:35 PM,69.8,50.0,49,30.05,10.0,SW,9.2,-,N/A,,Clear,220,2013-09-20 21:35:00
5:55 PM,68.0,51.8,56,30.05,10.0,WSW,9.2,-,N/A,,Clear,240,2013-09-20 21:55:00
6:15 PM,66.2,51.8,60,30.05,10.0,SW,9.2,-,N/A,,Clear,230,2013-09-20 22:15:00
6:35 PM,64.4,51.8,64,30.05,10.0,SW,6.9,-,N/A,,Clear,230,2013-09-20 22:35:00
6:55 PM,62.6,53.6,72,30.05,10.0,SW,6.9,-,N/A,,Clear,220,2013-09-20 22:55:00
7:15 PM,60.8,53.6,77,30.05,10.0,SW,4.6,-,N/A,,Clear,230,2013-09-20 23:15:00
7:35 PM,59.0,53.6,82,30.06,10.0,SW,5.8,-,N/A,,Clear,230,2013-09-20 23:35:00
7:55 PM,59.0,53.6,82,30.06,10.0,SW,5.8,-,N/A,,Clear,230,2013-09-20 23:55:00
8:15 PM,57.2,53.6,88,30.07,10.0,WSW,4.6,-,N/A,,Clear,240,2013-09-21 00:15:00
8:35 PM,57.2,55.4,94,30.07,10.0,WSW,4.6,-,N/A,,Clear,240,2013-09-21 00:35:00
8:55 PM,57.2,55.4,94,30.07,10.0,SW,4.6,-,N/A,,Clear,230,2013-09-21 00:55:00
9:15 PM,55.4,55.4,100,30.07,10.0,SW,4.6,-,N/A,,Clear,230,2013-09-21 01:15:00
9:35 PM,57.2,55.4,94,30.07,8.0,SW,6.9,-,N/A,,Clear,220,2013-09-21 01:35:00
9:55 PM,57.2,55.4,94,30.07,9.0,SW,4.6,-,N/A,,Clear,220,2013-09-21 01:55:00
10:15 PM,55.4,55.4,100,30.07,5.0,SW,5.8,-,N/A,,Clear,220,2013-09-21 02:15:00
10:35 PM,57.2,55.4,94,30.06,2.5,SSW,5.8,-,N/A,,Scattered Clouds,200,2013-09-21 02:35:00
10:55 PM,57.2,57.2,100,30.06,0.2,SW,3.5,-,N/A,Fog,Fog,220,2013-09-21 02:55:00
11:15 PM,57.2,57.2,100,30.06,0.2,SW,3.5,-,N/A,Fog,Fog,230,2013-09-21 03:15:00
11:35 PM,55.4,55.4,100,30.06,0.2,SSW,4.6,-,N/A,Fog,Fog,210,2013-09-21 03:35:00
11:55 PM,55.4,55.4,100,30.06,2.5,SW,3.5,-,N/A,,Partly Cloudy,230,2013-09-21 03:55:00